When you browse on this site, cookies collect data to enhance your experience and personalize the content and advertising you see.
Visit our Privacy Policy to learn more. By continuing to use the site, you agree to this use of cookies and data.
  • In Latvia
  • List of Countries
  • For 7 days
  • Water Temperature
  • Satellite Maps
  • Weather Map
  • Weather Widgets
  • user-avatar
    Login

    Hourly Weather Graz

    Today, 23 July, Tuesday

    Time Temperature Precipitation Wind Pressure Humidity
    00:00 +21°C° 0 mm 1 mps 729 mmHg 80%
    01:00 +20°C° 0 mm 1 mps 729 mmHg 81%
    02:00 +20°C° 0 mm 1 mps 729 mmHg 81%
    03:00 +20°C° 0 mm 1 mps 729 mmHg 81%
    04:00 +19°C° 0 mm 2 mps 728 mmHg 82%
    05:00 +21°C° 0 mm 1 mps 729 mmHg 78%
    06:00 +23°C° 0 mm 1 mps 729 mmHg 74%
    07:00 +24°C° 0 mm 1 mps 729 mmHg 71%
    08:00 +26°C° 0 mm 1 mps 729 mmHg 62%
    09:00 +29°C° 0 mm 1 mps 729 mmHg 52%
    10:00 +31°C° 0 mm 1 mps 729 mmHg 43%
    11:00 +32°C° 0 mm 1 mps 729 mmHg 41%
    12:00 +33°C° 0 mm 1 mps 729 mmHg 39%
    13:00 +34°C° 0 mm 1 mps 728 mmHg 37%
    14:00 +33°C° 0 mm 1 mps 728 mmHg 38%
    15:00 +33°C° 0 mm 1 mps 728 mmHg 39%
    16:00 +33°C° 0 mm 1 mps 728 mmHg 40%
    17:00 +31°C° 0 mm 1 mps 727 mmHg 50%
    18:00 +29°C° 0 mm 1 mps 727 mmHg 60%
    19:00 +27°C° 0 mm 1 mps 727 mmHg 70%
    20:00 +25°C° 0 mm 1 mps 727 mmHg 73%
    21:00 +24°C° 0 mm 1 mps 727 mmHg 76%
    22:00 +21°C° 0 mm 0 mps 727 mmHg 79%
    23:00 +20°C° 0 mm 0 mps 727 mmHg 80%

    Tomorrow, 24 July, Wednesday

    Time Temperature Precipitation Wind Pressure Humidity
    00:00 +20°C° 0 mm 0 mps 727 mmHg 80%
    01:00 +20°C° 0 mm 0 mps 727 mmHg 81%
    02:00 +19°C° 0 mm 0 mps 727 mmHg 82%
    03:00 +21°C° 0 mm 1 mps 727 mmHg 83%
    04:00 +20°C° 0 mm 1 mps 726 mmHg 84%
    05:00 +20°C° 0 mm 0 mps 727 mmHg 80%
    06:00 +21°C° 0 mm 0 mps 727 mmHg 75%
    07:00 +23°C° 0 mm 0 mps 727 mmHg 71%
    08:00 +25°C° 0 mm 0 mps 727 mmHg 65%
    09:00 +29°C° 0 mm 1 mps 727 mmHg 59%
    10:00 +30°C° 0 mm 1 mps 727 mmHg 52%
    11:00 +31°C° 0 mm 1 mps 727 mmHg 49%
    12:00 +32°C° 0 mm 1 mps 726 mmHg 47%
    13:00 +34°C° 0 mm 2 mps 726 mmHg 44%
    14:00 +32°C° 0 mm 2 mps 726 mmHg 45%
    15:00 +32°C° 0 mm 2 mps 726 mmHg 46%
    16:00 +32°C° 0 mm 2 mps 725 mmHg 47%
    17:00 +30°C° 0 mm 2 mps 725 mmHg 55%
    18:00 +29°C° 0 mm 1 mps 725 mmHg 63%
    19:00 +27°C° 0 mm 1 mps 725 mmHg 72%
    20:00 +26°C° 0 mm 1 mps 726 mmHg 74%
    21:00 +25°C° 0 mm 1 mps 726 mmHg 77%
    22:00 +24°C° 0 mm 1 mps 726 mmHg 79%
    23:00 +23°C° 0 mm 1 mps 726 mmHg 80%

    Day after tomorrow, 25 July, Thursday

    Time Temperature Precipitation Wind Pressure Humidity
    00:00 +23°C° 0 mm 1 mps 726 mmHg 81%
    01:00 +22°C° 0 mm 1 mps 726 mmHg 82%
    02:00 +22°C° 0 mm 1 mps 726 mmHg 83%
    03:00 +21°C° 0 mm 1 mps 726 mmHg 84%
    04:00 +21°C° 0 mm 1 mps 726 mmHg 85%
    05:00 +21°C° 0 mm 0 mps 726 mmHg 80%
    06:00 +22°C° 0 mm 0 mps 726 mmHg 76%
    07:00 +23°C° 0 mm 0 mps 726 mmHg 71%
    08:00 +25°C° 0 mm 0 mps 727 mmHg 66%
    09:00 +28°C° 0 mm 1 mps 727 mmHg 60%
    10:00 +30°C° 0 mm 1 mps 727 mmHg 54%
    11:00 +31°C° 0 mm 1 mps 726 mmHg 52%
    12:00 +32°C° 0 mm 1 mps 726 mmHg 50%
    13:00 +32°C° 0 mm 1 mps 726 mmHg 47%
    14:00 +32°C° 0.3 mm 1 mps 725 mmHg 50%
    15:00 +32°C° 0.3 mm 2 mps 725 mmHg 52%
    16:00 +31°C° 0.3 mm 2 mps 725 mmHg 54%
    17:00 +30°C° 0.4 mm 1 mps 725 mmHg 61%
    18:00 +28°C° 0.4 mm 1 mps 725 mmHg 67%
    19:00 +27°C° 0.4 mm 1 mps 724 mmHg 74%
    20:00 +26°C° 0.2 mm 1 mps 724 mmHg 76%
    21:00 +25°C° 0.2 mm 1 mps 725 mmHg 79%
    22:00 +24°C° 0.2 mm 1 mps 725 mmHg 81%
    23:00 +23°C° 0.2 mm 1 mps 724 mmHg 82%

    26 July, Friday

    Time Temperature Precipitation Wind Pressure Humidity
    00:00 +23°C° 0.2 mm 1 mps 724 mmHg 83%
    01:00 +23°C° 0.2 mm 1 mps 724 mmHg 84%
    02:00 +20°C° 0.1 mm 0 mps 724 mmHg 85%
    03:00 +20°C° 0.1 mm 0 mps 723 mmHg 86%
    04:00 +19°C° 0.1 mm 0 mps 723 mmHg 87%
    05:00 +20°C° 0 mm 0 mps 723 mmHg 84%
    06:00 +22°C° 0 mm 0 mps 723 mmHg 81%
    07:00 +23°C° 0 mm 0 mps 723 mmHg 77%
    08:00 +24°C° 0.2 mm 0 mps 723 mmHg 72%
    09:00 +28°C° 0.2 mm 1 mps 723 mmHg 67%
    10:00 +29°C° 0.2 mm 1 mps 723 mmHg 61%
    11:00 +29°C° 0.5 mm 2 mps 723 mmHg 63%
    12:00 +29°C° 0.5 mm 2 mps 722 mmHg 65%
    13:00 +29°C° 0.5 mm 2 mps 722 mmHg 67%
    14:00 +29°C° 1.2 mm 2 mps 721 mmHg 70%
    15:00 +28°C° 1.2 mm 1 mps 721 mmHg 73%
    16:00 +28°C° 1.2 mm 1 mps 721 mmHg 76%
    17:00 +27°C° 0.7 mm 1 mps 721 mmHg 78%
    18:00 +26°C° 0.7 mm 1 mps 720 mmHg 81%
    19:00 +23°C° 0.7 mm 0 mps 720 mmHg 84%
    20:00 +24°C° 0.5 mm 1 mps 720 mmHg 85%
    21:00 +23°C° 0.5 mm 1 mps 720 mmHg 85%
    22:00 +22°C° 0.5 mm 1 mps 721 mmHg 86%
    23:00 +22°C° 0 mm 1 mps 720 mmHg 86%

    27 July, Saturday

    Time Temperature Precipitation Wind Pressure Humidity
    00:00 +21°C° 0 mm 1 mps 720 mmHg 85%
    01:00 +19°C° 0 mm 0 mps 720 mmHg 84%
    02:00 +19°C° 0 mm 0 mps 720 mmHg 84%
    03:00 +18°C° 0 mm 0 mps 720 mmHg 84%
    04:00 +18°C° 0 mm 0 mps 719 mmHg 84%
    05:00 +19°C° 0 mm 0 mps 719 mmHg 81%
    06:00 +20°C° 0 mm 0 mps 720 mmHg 79%
    07:00 +21°C° 0 mm 0 mps 720 mmHg 77%
    08:00 +24°C° 0 mm 1 mps 720 mmHg 70%
    09:00 +25°C° 0 mm 1 mps 720 mmHg 63%
    10:00 +26°C° 0 mm 2 mps 720 mmHg 56%
    11:00 +27°C° 0 mm 2 mps 720 mmHg 54%
    12:00 +28°C° 0 mm 2 mps 719 mmHg 52%
    13:00 +29°C° 0 mm 2 mps 719 mmHg 50%
    14:00 +28°C° 0.1 mm 2 mps 719 mmHg 52%
    15:00 +28°C° 0.1 mm 2 mps 719 mmHg 54%
    16:00 +28°C° 0.1 mm 2 mps 718 mmHg 56%
    17:00 +27°C° 0.2 mm 1 mps 718 mmHg 63%
    18:00 +25°C° 0.2 mm 1 mps 718 mmHg 69%
    19:00 +24°C° 0.2 mm 1 mps 718 mmHg 76%
    20:00 +24°C° 0.1 mm 1 mps 718 mmHg 77%
    21:00 +21°C° 0.1 mm 0 mps 718 mmHg 77%
    22:00 +20°C° 0.1 mm 0 mps 718 mmHg 78%
    23:00 +20°C° 0.1 mm 0 mps 718 mmHg 79%

    28 July, Sunday

    Time Temperature Precipitation Wind Pressure Humidity
    00:00 +19°C° 0.1 mm 0 mps 718 mmHg 80%
    01:00 +19°C° 0.1 mm 0 mps 718 mmHg 81%
    02:00 +19°C° 0 mm 0 mps 717 mmHg 82%
    03:00 +19°C° 0 mm 0 mps 717 mmHg 82%
    04:00 +18°C° 0 mm 0 mps 717 mmHg 83%
    05:00 +19°C° 0.6 mm 0 mps 717 mmHg 82%
    06:00 +20°C° 0.6 mm 0 mps 717 mmHg 82%
    07:00 +20°C° 0.6 mm 0 mps 717 mmHg 81%
    08:00 +23°C° 0.6 mm 1 mps 717 mmHg 78%
    09:00 +24°C° 0.6 mm 1 mps 718 mmHg 75%
    10:00 +25°C° 0.6 mm 1 mps 718 mmHg 72%
    11:00 +25°C° 0.7 mm 2 mps 718 mmHg 73%
    12:00 +26°C° 0.7 mm 2 mps 717 mmHg 75%
    13:00 +26°C° 0.7 mm 2 mps 717 mmHg 76%
    14:00 +26°C° 1.5 mm 2 mps 717 mmHg 78%
    15:00 +25°C° 1.5 mm 1 mps 717 mmHg 79%
    16:00 +25°C° 1.5 mm 1 mps 717 mmHg 80%
    17:00 +24°C° 0.5 mm 1 mps 718 mmHg 82%
    18:00 +22°C° 0.5 mm 0 mps 718 mmHg 84%
    19:00 +21°C° 0.5 mm 0 mps 718 mmHg 86%
    20:00 +20°C° 0.1 mm 0 mps 718 mmHg 87%
    21:00 +21°C° 0.1 mm 1 mps 718 mmHg 88%
    22:00 +20°C° 0.1 mm 1 mps 719 mmHg 89%
    23:00 +20°C° 0 mm 1 mps 719 mmHg 89%
    Show more